Regional Weather Roundup
Issued by NWS Cleveland, OH

Home | Current Version | Previous Version | Text Only | Print | Product List | Glossary Off
Versions: 1 2 3 4 5 6 7 8 9 10 11 12 13 14 15 16 17 18 19 20 21 22 23 24 25 26 27 28 29 30 31 32 33 34 35 36 37 38 39 40 41 42 43 44 45 46 47 48 49 50

000
ASUS41 KCLE 180000
RWRCLE
OHIO REGIONAL WEATHER ROUNDUP
NATIONAL WEATHER SERVICE WILMINGTON, OH
800 PM EDT THU APR 17 2014

NOTE: "FAIR" INDICATES FEW OR NO CLOUDS BELOW 12,000 FEET WITH NO
SIGNIFICANT WEATHER AND/OR OBSTRUCTIONS TO VISIBILITY.

OHZ001>008-015>018-024>027-034-035-043-044-180100-
   NORTHWEST OHIO

CITY           SKY/WX    TMP DP  RH WIND       PRES   REMARKS
DEFIANCE       PTCLDY    64  30  27 SW5       30.23S
FINDLAY        MOCLDY    59  38  45 S10       30.24S
TOLEDO EXPRESS CLEAR     63  29  27 SW10      30.23S
TOLEDO METCALF PTCLDY    63  32  31 SW9       30.24S
LIMA           PTCLDY    63  33  32 SW6       30.25S
$$

OHZ009>014-019>023-028>033-038-089-180100-
   NORTHEAST OHIO

CITY           SKY/WX    TMP DP  RH WIND       PRES   REMARKS
CLE-HOPKINS    MOCLDY    62  31  31 SW8       30.30S
CLE-LAKEFRONT  PTCLDY    63  32  31 S8        30.27R
CUY CO. ARPT   MOCLDY    63  30  29 SW14      30.30R
LORAIN-ELYRIA  CLEAR     63  34  33 S8        30.28S
ASHTABULA      PTCLDY    58  29  33 SE7       30.31S
AKRON-CANTON   PTCLDY    61  27  27 S8        30.30S
WOOSTER        NOT AVBL
MANSFIELD      CLEAR     58  34  40 S10       30.28S
YOUNGSTOWN     PTCLDY    59  27  29 SE7       30.31S
$$

OHZ042-051>053-060>062-070>072-077>081-180100-
  SOUTHWEST OHIO

CITY           SKY/WX    TMP DP  RH WIND       PRES   REMARKS
CINC-COVINGTON PTCLDY    59  36  42 S8        30.27R
CINC-LUNKEN    CLEAR     62  35  36 S9        30.28R
HAMILTON       CLEAR     66  35  31 SW6       30.27R
DAYTON         NOT AVBL
WRIGHT-PAT AFB CLEAR     63  33  32 S9        30.26R
DAYTON GENERAL CLEAR     60  35  39 S6        30.26R
WILMINGTON     CLEAR     59  34  39 S7        30.27S
$$

OHZ036-037-039>041-045>050-054>059-063>069-073>076-082>088-180100-
  CENTRAL AND SOUTHEAST OHIO

CITY           SKY/WX    TMP DP  RH WIND       PRES   REMARKS
COLUMBUS       MOCLDY    65  28  24 S9        30.27F
OSU AIRPORT    PTCLDY    62  31  31 S7        30.26F
BOLTON FIELD   NOT AVBL
RICKENBACK AFB NOT AVBL
NEWARK         PTCLDY    62  29  28 SE5       30.26F
MARION         CLEAR     57  35  43 S6        30.27S
LANCASTER      PTCLDY    63  28  26 SW5       30.27F
ZANESVILLE     PTCLDY    61  25  25 S6        30.28F
NEW PHILLY     CLEAR     62  27  26 S5        30.30F
$$



USA.gov is the U.S. government's official web portal to all federal, state and local government web resources and services.